Ouarzazate, Morocco

2:54 AM WET on May 22, 2018 (GMT +0000)
Ouarzazate

Weather History for GMMZ - March, 2013

Change the Weather History Date:

Thursday, March 14, 2013

  Actual Average Record
Temperature  
Mean Temperature 66 °F -  
Max Temperature 77 °F 74 °F - ()
Min Temperature 55 °F 47 °F - ()
Cooling Degree Days 1    
Growing Degree Days 16 (Base 50)    
Moisture  
Dew Point 30 °F    
Average Humidity 26    
Maximum Humidity 45    
Minimum Humidity 6    
Precipitation  
Precipitation 0.00 in 0.01 in - ()
Sea Level Pressure  
Sea Level Pressure 29.89 in    
Wind  
Wind Speed 11 mph ()    
Max Wind Speed 28 mph    
Max Gust Speed 28 mph    
Visibility 6.3 miles    
Events      
T = Trace of Precipitation, MM = Missing Value Source: Averaged Metar Reports

Daily Weather History Graph

Daily Weather History Graph

Search for Another Location

Airport or City:

Astronomy

Mar. 14, 2013 Rise Set
Actual Time 6:38 AM WET 6:35 PM WET
Civil Twilight 6:14 AM WET 6:59 PM WET
Nautical Twilight 5:46 AM WET 7:27 PM WET
Astronomical Twilight 5:18 AM WET 7:55 PM WET
Moon 7:57 AM WET (3/14) 9:22 PM WET (3/14)
Length of Visible Light 12h 44m
Length of Day
11h 56m
Waxing Crescent, 8% of the Moon is Illuminated
Mar 14
Waxing Crescent
Mar 19
First Quarter
Mar 27
Full
Apr 3
Last Quarter
Apr 10
New

Hourly Weather History & Observations

Time (WET) Temp. Dew Point Humidity Pressure Visibility Wind Dir Wind Speed Gust Speed Precip Events Conditions
12:00 AM 60 °F 33 °F 24%  in 4 mi WNW 27.6 mph - -   Partly Cloudy
12:00 AM 60.8 °F 33.8 °F 36% 29.86 in 3.7 mi WNW 27.6 mph - N/A   Scattered Clouds
1:00 AM 59.0 °F 30.2 °F 34% 29.86 in 3.7 mi WNW 24.2 mph - N/A   Scattered Clouds
2:00 AM 59.0 °F 30.2 °F 34% 29.86 in 3.7 mi WNW 15.0 mph - N/A   Scattered Clouds
3:00 AM 57 °F 31 °F 24%  in 4 mi NW 9.2 mph - -   Partly Cloudy
3:00 AM 57.2 °F 30.2 °F 36% 29.83 in 3.7 mi NW 9.2 mph - N/A   Scattered Clouds
4:00 AM 59.0 °F 28.4 °F 31% - 3.7 mi NW 10.4 mph - N/A   Scattered Clouds
5:00 AM 59.0 °F 28.4 °F 31% 29.83 in 3.7 mi NW 10.4 mph - N/A   Scattered Clouds
6:00 AM 58 °F 29 °F 22%  in 4 mi NW 15.0 mph - -   Partly Cloudy
6:00 AM 57.2 °F 30.2 °F 36% 29.83 in 3.7 mi NW 16.1 mph 27.6 mph N/A   Scattered Clouds
7:00 AM 55.4 °F 33.8 °F 44% 29.86 in 3.7 mi Variable 2.3 mph - N/A   Scattered Clouds
8:00 AM 55.4 °F 33.8 °F 44% 29.89 in - ESE 4.6 mph - N/A   Clear
9:00 AM 62 °F 28 °F 16%  in 12 mi NNW 4.6 mph - -   Clear
9:00 AM 62.6 °F 28.4 °F 27% 29.92 in - NNW 4.6 mph - N/A   Clear
10:00 AM 66.2 °F 28.4 °F 24% 29.92 in - Calm Calm - N/A   Clear
11:00 AM 68.0 °F 24.8 °F 20% 29.95 in - Variable 1.2 mph - N/A   Clear
12:00 PM 70 °F 22 °F 8%  in 12 mi WSW 6.9 mph - -   Clear
12:00 PM 69.8 °F 21.2 °F 16% 29.92 in - Variable 3.5 mph - N/A   Clear
1:00 PM 73.4 °F 17.6 °F 12% 29.92 in - WNW 13.8 mph - N/A   Clear
2:00 PM 75.2 °F 23.0 °F 14% 29.89 in - West 12.7 mph - N/A   Clear
3:00 PM 75 °F 21 °F 6%  in 12 mi West 8.1 mph - -   Clear
3:00 PM 75.2 °F 21.2 °F 13% 29.89 in - West 8.1 mph - N/A   Clear
4:00 PM 77.0 °F 23.0 °F 13% 29.86 in - Variable 3.5 mph - N/A   Clear
5:00 PM 95.0 °F 21.2 °F 7% 29.86 in - Variable 3.5 mph - N/A   Clear
6:00 PM 74 °F 36 °F 15%  in 12 mi South 3.5 mph - -   Clear
6:00 PM 73.4 °F 37.4 °F 27% 29.89 in - South 4.6 mph - N/A   Clear
7:00 PM 69.8 °F 37.4 °F 31% 29.89 in - South 11.5 mph - N/A   Clear
8:00 PM 68.0 °F 41.0 °F 37% 29.92 in - South 9.2 mph - N/A   Clear
9:00 PM 65 °F 41 °F 29%  in 12 mi South 6.9 mph - -   Clear
9:00 PM 66.2 °F 41.0 °F 40% 29.95 in - SSE 5.8 mph - N/A   Clear
10:00 PM 64.4 °F 41.0 °F 42% 29.98 in - Variable 3.5 mph - N/A   Clear
11:00 PM 62.6 °F 41.0 °F 45% 29.98 in - SSE 5.8 mph - N/A   Clear